Weather History for OETR - March, 2013

Change the Weather History Date:

Tuesday, March 5, 2013

  Actual Average Record
Temperature  
Mean Temperature 53 °F -  
Max Temperature 62 °F 66 °F 87 °F (2004)
Min Temperature 44 °F 44 °F 35 °F (2005)
Degree Days  
Heating Degree Days 12    
Growing Degree Days 3 (Base 50)    
Moisture  
Dew Point 40 °F    
Average Humidity 64    
Maximum Humidity 100    
Minimum Humidity 24    
Precipitation  
Precipitation 0.00 in - - ()
Sea Level Pressure  
Sea Level Pressure 29.96 in    
Wind  
Wind Speed 13 mph ()    
Max Wind Speed 23 mph    
Max Gust Speed -    
Visibility 6.0 miles    
Events      
Averages and records for this station are not official NWS values.
T = Trace of Precipitation, MM = Missing Value Source: Averaged Metar Reports

Daily Weather History Graph

Daily Weather History Graph

Search for Another Location

Airport or City:

Trip Planner

Search our weather history database for the weather conditions in past years. The results will help you decide how hot, cold, wet, or windy it might be!

Date:

Astronomy

Mar. 05, 2013 Rise Set
Actual Time 6:47 AM AST 6:25 PM AST
Civil Twilight 6:23 AM AST 6:50 PM AST
Nautical Twilight 5:54 AM AST 7:18 PM AST
Astronomical Twilight 5:26 AM AST 7:46 PM AST
Moon 1:22 AM AST (3/5) 11:59 AM AST (3/5)
Length of Visible Light 12h 27m
Length of Day
11h 38m
Last Quarter, 45% of the Moon is Illuminated
Mar 5
Last Quarter
Mar 11
New
Mar 19
First Quarter
Mar 27
Full
Apr 3
Last Quarter

Hourly Weather History & Observations

Time (AST) Temp. Windchill Dew Point Humidity Pressure Visibility Wind Dir Wind Speed Gust Speed Precip Events Conditions
12:00 AM 52 °F - 39 °F 51%  in 6 mi WNW 15.0 mph - -   Partly Cloudy
12:00 AM 51.8 °F - 39.2 °F 62% 29.95 in - WNW 15.0 mph - N/A   Clear
1:00 AM 50.0 °F - 41.0 °F 71% 29.95 in - WNW 12.7 mph - N/A   Clear
2:00 AM 50.0 °F - 44.6 °F 82% 29.95 in - West 16.1 mph - N/A   Clear
3:00 AM 48 °F - 45 °F 84%  in 6 mi West 11.5 mph - -  
3:00 AM 48.2 °F - 44.6 °F 87% 29.95 in - West 11.5 mph - N/A   Clear
4:00 AM 46.4 °F 41.9 °F 42.8 °F 87% 29.95 in - West 9.2 mph - N/A   Clear
5:00 AM 46.4 °F 41.9 °F 42.8 °F 87% 29.95 in - West 9.2 mph - N/A   Clear
6:00 AM 46 °F - 45 °F 93%  in 6 mi West 9.2 mph - -   Partly Cloudy
6:00 AM 46.4 °F 41.9 °F 44.6 °F 93% 29.95 in - West 9.2 mph - N/A   Clear
7:00 AM 44.6 °F 38.8 °F 44.6 °F 100% 29.95 in 5.0 mi West 11.5 mph - N/A   Unknown
8:00 AM 46.4 °F 42.9 °F 44.6 °F 93% 29.98 in 5.6 mi WSW 6.9 mph - N/A   Unknown
9:00 AM 48 °F - 46 °F 92%  in 6 mi WSW 9.2 mph - -   Mostly Cloudy
9:00 AM 48.2 °F - 46.4 °F 93% 29.98 in - WSW 9.2 mph - N/A   Clear
10:00 AM 51.8 °F - 46.4 °F 82% 30.01 in - West 13.8 mph - N/A   Clear
11:00 AM 53.6 °F - 44.6 °F 72% 29.98 in 6.2 mi West 18.4 mph - N/A   Mostly Cloudy
12:00 PM 55 °F - 43 °F 53%  in 6 mi West 20.7 mph - -   Mostly Cloudy
12:00 PM 55.4 °F - 42.8 °F 63% 29.98 in 6.2 mi West 20.7 mph - N/A   Mostly Cloudy
1:00 PM 57.2 °F - 41.0 °F 55% 29.95 in 6.2 mi West 20.7 mph - N/A   Scattered Clouds
2:00 PM 60.8 °F - 39.2 °F 45% 29.92 in 6.2 mi West 17.3 mph - N/A   Scattered Clouds
3:00 PM 63 °F - 39 °F 30%  in 6 mi West 20.7 mph - -   Partly Cloudy
3:00 PM 62.6 °F - 39.2 °F 42% 29.92 in - West 20.7 mph - N/A   Clear
4:00 PM 60.8 °F - 39.2 °F 45% 29.89 in 6.2 mi WNW 23.0 mph - N/A   Scattered Clouds
5:00 PM 60.8 °F - 35.6 °F 39% 29.89 in 6.2 mi West 17.3 mph - N/A   Partly Cloudy
6:00 PM 59 °F - 32 °F 24%  in 6 mi West 19.6 mph - -   Scattered Clouds
6:00 PM 59.0 °F - 32.0 °F 36% 29.92 in - West 19.6 mph - N/A   Clear
7:00 PM 57.2 °F - 33.8 °F 41% 29.95 in - WNW 17.3 mph - N/A   Clear
8:00 PM 55.4 °F - 35.6 °F 47% 29.98 in - West 13.8 mph - N/A   Clear
9:00 PM 54 °F - 36 °F 38%  in 6 mi West 19.6 mph - -  
9:00 PM 53.6 °F - 35.6 °F 51% 29.98 in - West 19.6 mph - N/A   Clear
10:00 PM 50.0 °F - 35.6 °F 58% 30.01 in - WNW 16.1 mph - N/A   Clear
11:00 PM 48.2 °F - 33.8 °F 58% 30.01 in - WNW 13.8 mph - N/A   Clear